Location: Lhota
(50.0887°N, 14.0116°E)
Time: 17:13:37
(UTC+00:00)

ALOS 2 - Pass Details

Date: 19 May 2025
Orbit: 630 x 632 km, 97.9° (Epoch: 17 June)

Event Time Altitude Azimuth Distance (km) Brightness Sun altitude
Exits shadow 22:19:01 44° 155° (SSE) 874 2.8 -19.3°
Maximum altitude 22:20:23 81° 74° (ENE) 647 2.6 -19.4°
Drops below altitude 10° 22:24:48 10° 348° (NNW) 2,027 6.4 -19.5°
Sets 22:27:00 0° 347° (NNW) 2,939 7.7 -19.5°
